ACI330 NWWW-NFFN

Flight info

Callsign ACI330
Flight time N/A
Altitude 39000
Route LTO3W LTO B599 ALBAB DCT VIBEX MIKAX2B
Aircraft A20N/M-SDE2E3FGHIRWXY/LB1

Departure

Time 2026-05-08 09:57
Airport La Tontouta International Airport (NWWW)

Arrival

Time N/A
Airport Nadi International Airport (NFFN)
Time Latitude Longitude Altitude Speed Heading
2026-05-08 09:43 -22.01333 166.21588 67 ft 0 kts 120°
2026-05-08 09:44 -22.01333 166.21587 68 ft 0 kts 120°
2026-05-08 09:45 -22.01332 166.21587 68 ft 0 kts 120°
2026-05-08 09:49 -22.01330 166.21582 68 ft 1 kts 121°
2026-05-08 09:49 -22.01319 166.21564 67 ft 4 kts 122°
2026-05-08 09:50 -22.01297 166.21529 65 ft 6 kts 125°
2026-05-08 09:50 -22.01272 166.21490 65 ft 5 kts 128°
2026-05-08 09:50 -22.01255 166.21468 64 ft 3 kts 129°
2026-05-08 09:50 -22.01277 166.21515 65 ft 0 kts 216°
2026-05-08 09:53 -22.01294 166.21504 64 ft 11 kts 208°
2026-05-08 09:53 -22.01406 166.21434 59 ft 21 kts 211°
2026-05-08 09:53 -22.01532 166.21446 57 ft 19 kts 121°
2026-05-08 09:54 -22.01610 166.21588 62 ft 24 kts 121°
2026-05-08 09:54 -22.01712 166.21767 66 ft 30 kts 121°
2026-05-08 09:54 -22.01830 166.21973 71 ft 33 kts 121°
2026-05-08 09:54 -22.01956 166.22197 76 ft 33 kts 122°
2026-05-08 09:55 -22.02071 166.22397 77 ft 29 kts 120°
2026-05-08 09:55 -22.02159 166.22586 78 ft 27 kts 95°
2026-05-08 09:55 -22.02184 166.22606 77 ft 14 kts 310°
2026-05-08 09:55 -22.02104 166.22456 78 ft 14 kts 299°
2026-05-08 09:56 -22.02100 166.22449 77 ft 7 kts 300°
2026-05-08 09:56 -22.01940 166.22163 76 ft 78 kts 300°
2026-05-08 09:56 -22.01548 166.21468 58 ft 137 kts 301°
2026-05-08 09:56 -22.00962 166.20430 66 ft 182 kts 301°
2026-05-08 09:57 -21.99627 166.17906 810 ft 202 kts 295°
2026-05-08 09:57 -21.99001 166.16678 1700 ft 174 kts 288°
2026-05-08 09:57 -21.98838 166.15501 2283 ft 154 kts 251°
2026-05-08 09:58 -21.99268 166.14424 2517 ft 159 kts 226°
2026-05-08 09:58 -22.00032 166.13615 2928 ft 153 kts 204°
2026-05-08 09:58 -22.01051 166.13223 3218 ft 160 kts 185°
2026-05-08 09:58 -22.02170 166.13014 3555 ft 172 kts 185°
2026-05-08 09:59 -22.03454 166.12767 3712 ft 197 kts 183°
2026-05-08 09:59 -22.04775 166.13142 3899 ft 208 kts 136°
2026-05-08 09:59 -22.05675 166.14432 4237 ft 223 kts 116°
2026-05-08 09:59 -22.06046 166.16092 4551 ft 241 kts 85°
2026-05-08 10:00 -22.05397 166.17810 4856 ft 262 kts 50°
2026-05-08 10:00 -22.03963 166.19092 5371 ft 273 kts 33°
2026-05-08 10:00 -22.02318 166.20145 6087 ft 274 kts 31°
2026-05-08 10:00 -22.00816 166.21367 6759 ft 275 kts 49°
2026-05-08 10:01 -21.99820 166.23117 7371 ft 278 kts 67°
2026-05-08 10:01 -21.99119 166.25085 7940 ft 283 kts 69°
2026-05-08 10:01 -21.98444 166.27081 8450 ft 288 kts 70°
2026-05-08 10:01 -21.97758 166.29114 8946 ft 292 kts 70°
2026-05-08 10:02 -21.97052 166.31194 9445 ft 296 kts 70°
2026-05-08 10:02 -21.96339 166.33276 9928 ft 299 kts 70°
2026-05-08 10:02 -21.95604 166.35416 10278 ft 309 kts 70°
2026-05-08 10:02 -21.94852 166.37602 10512 ft 321 kts 70°
2026-05-08 10:03 -21.94054 166.39917 10789 ft 332 kts 70°
2026-05-08 10:03 -21.93250 166.42247 11223 ft 335 kts 70°
2026-05-08 10:03 -21.92433 166.44611 11708 ft 338 kts 70°
2026-05-08 10:03 -21.91615 166.46973 12162 ft 341 kts 70°
2026-05-08 10:04 -21.90786 166.49367 12602 ft 344 kts 70°
2026-05-08 10:04 -21.89949 166.51782 13034 ft 347 kts 70°
2026-05-08 10:04 -21.89089 166.54265 13453 ft 350 kts 70°
2026-05-08 10:04 -21.88232 166.56735 13876 ft 353 kts 70°
2026-05-08 10:05 -21.87371 166.59218 14289 ft 356 kts 70°
2026-05-08 10:05 -21.86508 166.61703 14695 ft 359 kts 70°
2026-05-08 10:05 -21.85627 166.64241 15086 ft 362 kts 70°
2026-05-08 10:05 -21.84749 166.66766 15473 ft 365 kts 69°
2026-05-08 10:06 -21.83851 166.69351 15866 ft 368 kts 69°
2026-05-08 10:06 -21.82956 166.71922 16252 ft 370 kts 69°
2026-05-08 10:06 -21.82047 166.74536 16623 ft 373 kts 69°
2026-05-08 10:06 -21.81141 166.77135 16987 ft 376 kts 69°
2026-05-08 10:07 -21.80216 166.79791 17354 ft 378 kts 69°
2026-05-08 10:07 -21.79295 166.82431 17719 ft 381 kts 69°
2026-05-08 10:07 -21.78357 166.85123 18081 ft 383 kts 69°
2026-05-08 10:07 -21.77419 166.87807 18425 ft 386 kts 69°
2026-05-08 10:08 -21.76468 166.90529 18778 ft 389 kts 69°
2026-05-08 10:08 -21.75514 166.93259 19122 ft 391 kts 69°
2026-05-08 10:08 -21.74562 166.95979 19500 ft 393 kts 69°
2026-05-08 10:08 -21.73598 166.98732 19852 ft 395 kts 69°
2026-05-08 10:09 -21.72621 167.01523 20176 ft 398 kts 69°
2026-05-08 10:09 -21.71651 167.04292 20488 ft 401 kts 69°
2026-05-08 10:09 -21.70657 167.07126 20809 ft 405 kts 69°
2026-05-08 10:09 -21.69668 167.09944 21117 ft 408 kts 69°
2026-05-08 10:10 -21.68661 167.12813 21443 ft 410 kts 68°
2026-05-08 10:10 -21.67647 167.15701 21754 ft 413 kts 68°
2026-05-08 10:10 -21.66631 167.18590 22081 ft 416 kts 68°
2026-05-08 10:10 -21.65600 167.21519 22388 ft 419 kts 68°
2026-05-08 10:11 -21.64564 167.24463 22688 ft 422 kts 68°
2026-05-08 10:11 -21.63532 167.27391 23015 ft 423 kts 68°
2026-05-08 10:11 -21.62491 167.30347 23333 ft 425 kts 68°
2026-05-08 10:11 -21.61436 167.33337 23632 ft 427 kts 68°
2026-05-08 10:12 -21.60388 167.36311 23916 ft 429 kts 68°
2026-05-08 10:12 -21.59329 167.39310 24214 ft 431 kts 68°
2026-05-08 10:12 -21.58265 167.42320 24500 ft 433 kts 68°
2026-05-08 10:12 -21.57191 167.45360 24781 ft 435 kts 68°
2026-05-08 10:13 -21.56124 167.48375 25066 ft 436 kts 68°
2026-05-08 10:13 -21.55038 167.51440 25329 ft 438 kts 67°
2026-05-08 10:13 -21.53947 167.54518 25580 ft 441 kts 67°
2026-05-08 10:13 -21.52865 167.57571 25838 ft 442 kts 67°
2026-05-08 10:14 -21.51764 167.60673 26097 ft 444 kts 67°
2026-05-08 10:14 -21.50673 167.63748 26357 ft 445 kts 67°
2026-05-08 10:14 -21.49560 167.66882 26593 ft 447 kts 66°
2026-05-08 10:14 -21.48453 167.69995 26825 ft 448 kts 66°
2026-05-08 10:15 -21.47343 167.73114 27070 ft 449 kts 66°
2026-05-08 10:15 -21.46225 167.76260 27294 ft 450 kts 66°
2026-05-08 10:15 -21.45116 167.79375 27495 ft 451 kts 66°
2026-05-08 10:15 -21.43988 167.82536 27704 ft 453 kts 66°
2026-05-08 10:16 -21.42860 167.85698 27914 ft 453 kts 66°
2026-05-08 10:16 -21.41740 167.88834 28087 ft 455 kts 66°
2026-05-08 10:16 -21.40609 167.92000 28279 ft 456 kts 66°
2026-05-08 10:16 -21.39472 167.95183 28454 ft 457 kts 66°
2026-05-08 10:17 -21.38331 167.98378 28647 ft 458 kts 66°
2026-05-08 10:17 -21.37186 168.01575 28832 ft 458 kts 66°
2026-05-08 10:17 -21.36056 168.04735 28992 ft 460 kts 66°
2026-05-08 10:17 -21.34906 168.07944 29162 ft 461 kts 66°
2026-05-08 10:18 -21.33751 168.11169 29314 ft 462 kts 66°
2026-05-08 10:18 -21.32603 168.14369 29480 ft 462 kts 66°
2026-05-08 10:18 -21.31445 168.17595 29630 ft 463 kts 66°
2026-05-08 10:18 -21.30299 168.20784 29787 ft 464 kts 66°
2026-05-08 10:19 -21.29135 168.24007 29936 ft 464 kts 66°
2026-05-08 10:19 -21.27954 168.27249 30084 ft 465 kts 66°
2026-05-08 10:19 -21.26780 168.30469 30209 ft 466 kts 66°
2026-05-08 10:20 -21.24419 168.36951 30453 ft 468 kts 66°
2026-05-08 10:20 -21.23240 168.40187 30584 ft 469 kts 66°
2026-05-08 10:20 -21.22043 168.43472 30703 ft 470 kts 66°
2026-05-08 10:20 -21.20863 168.46707 30824 ft 470 kts 66°
2026-05-08 10:21 -21.19666 168.49988 30937 ft 471 kts 66°
2026-05-08 10:21 -21.17275 168.56534 31153 ft 473 kts 66°
2026-05-08 10:21 -21.16080 168.59801 31275 ft 473 kts 66°
2026-05-08 10:22 -21.14886 168.63066 31380 ft 474 kts 66°
2026-05-08 10:22 -21.13689 168.66338 31494 ft 474 kts 66°
2026-05-08 10:22 -21.12484 168.69627 31598 ft 474 kts 66°
2026-05-08 10:22 -21.11273 168.72929 31708 ft 474 kts 66°
2026-05-08 10:23 -21.10068 168.76213 31810 ft 475 kts 66°
2026-05-08 10:23 -21.07663 168.82759 31992 ft 475 kts 66°
2026-05-08 10:24 -21.05234 168.89369 32142 ft 477 kts 66°
2026-05-08 10:24 -21.02815 168.95934 32306 ft 477 kts 66°
2026-05-08 10:25 -21.00381 169.02537 32475 ft 478 kts 66°
2026-05-08 10:25 -20.97934 169.09168 32647 ft 478 kts 66°
2026-05-08 10:26 -20.95482 169.15796 32794 ft 479 kts 66°
2026-05-08 10:26 -20.93037 169.22398 32963 ft 478 kts 66°
2026-05-08 10:27 -20.90592 169.28998 33086 ft 479 kts 66°
2026-05-08 10:27 -20.88120 169.35654 33176 ft 480 kts 66°
2026-05-08 10:28 -20.85671 169.42244 33308 ft 480 kts 66°
2026-05-08 10:28 -20.83195 169.48892 33410 ft 480 kts 67°
2026-05-08 10:29 -20.80725 169.55521 33496 ft 481 kts 66°
2026-05-08 10:29 -20.78263 169.62114 33599 ft 481 kts 67°
2026-05-08 10:30 -20.75773 169.68777 33687 ft 481 kts 66°
2026-05-08 10:30 -20.73290 169.75409 33787 ft 481 kts 66°
2026-05-08 10:31 -20.70812 169.82021 33862 ft 481 kts 66°
2026-05-08 10:31 -20.68328 169.88640 33948 ft 480 kts 66°
2026-05-08 10:32 -20.65849 169.95236 34026 ft 480 kts 66°
2026-05-08 10:32 -20.63359 170.01855 34099 ft 480 kts 66°
2026-05-08 10:33 -20.60872 170.08456 34203 ft 479 kts 66°
2026-05-08 10:33 -20.58397 170.15019 34260 ft 480 kts 66°
2026-05-08 10:34 -20.55901 170.21625 34340 ft 480 kts 66°
2026-05-08 10:34 -20.53415 170.28195 34484 ft 478 kts 66°
2026-05-08 10:35 -20.50918 170.34795 34596 ft 477 kts 66°
2026-05-08 10:35 -20.48441 170.41332 34691 ft 477 kts 66°
2026-05-08 10:36 -20.45965 170.47853 34790 ft 476 kts 67°
2026-05-08 10:36 -20.43470 170.54402 34821 ft 477 kts 67°
2026-05-08 10:37 -20.40974 170.60948 34876 ft 477 kts 67°
2026-05-08 10:37 -20.38486 170.67473 34945 ft 477 kts 66°
2026-05-08 10:38 -20.35985 170.74023 34997 ft 476 kts 66°
2026-05-08 10:38 -20.33507 170.80508 35092 ft 475 kts 66°
2026-05-08 10:39 -20.31017 170.87013 35160 ft 474 kts 66°
2026-05-08 10:39 -20.28521 170.93529 35175 ft 474 kts 66°
2026-05-08 10:40 -20.26045 170.99985 35183 ft 475 kts 67°
2026-05-08 10:40 -20.23542 171.06499 35202 ft 475 kts 66°
2026-05-08 10:41 -20.21033 171.13025 35194 ft 475 kts 67°
2026-05-08 10:41 -20.18540 171.19499 35241 ft 474 kts 67°
2026-05-08 10:42 -20.16038 171.25989 35250 ft 475 kts 67°
2026-05-08 10:42 -20.13526 171.32494 35267 ft 474 kts 67°
2026-05-08 10:43 -20.11032 171.38945 35319 ft 473 kts 67°
2026-05-08 10:43 -20.08531 171.45409 35330 ft 473 kts 67°
2026-05-08 10:44 -20.06023 171.51881 35308 ft 474 kts 67°
2026-05-08 10:44 -20.03503 171.58374 35288 ft 475 kts 67°
2026-05-08 10:45 -20.00999 171.64822 35284 ft 475 kts 67°
2026-05-08 10:45 -19.98473 171.71310 35295 ft 475 kts 67°
2026-05-08 10:46 -19.95943 171.77811 35335 ft 474 kts 67°
2026-05-08 10:46 -19.93437 171.84239 35356 ft 474 kts 67°
2026-05-08 10:47 -19.90914 171.90701 35285 ft 475 kts 67°
2026-05-08 10:47 -19.88381 171.97180 35357 ft 475 kts 67°
2026-05-08 10:47 -19.87102 172.00449 35461 ft 473 kts 67°
2026-05-08 10:48 -19.85848 172.03651 35554 ft 472 kts 67°
2026-05-08 10:48 -19.83329 172.10080 35597 ft 471 kts 67°
2026-05-08 10:49 -19.80830 172.16449 35607 ft 471 kts 67°
2026-05-08 10:49 -19.78300 172.22888 35605 ft 471 kts 68°